Home > Weather > Herzliya > Past weeks

Flag for Israel Weather for the Past 2 Weeks in Herzliya, Israel

Now
70 °F

Sunny.


Feels Like: 70 °F
Forecast: 66 / 72 °F
Wind: 5 mph from East

Location: Dov Airport

Current Time: May 3, 2016 at 8:56:40 AM

Latest Report: May 3, 2016 at 7:50 AM


Visibility: 10 mi

Pressure: 29.86 "Hg

Humidity: 64%

Dew Point: 57 °F

Location of HerzliyaLocation

Historic Weather in Herzliya — Graph

°F

Herzliya Temperature Yesterday

Maximum temperature yesterday: 75 °F (at 10:50 AM)
Minimum temperature yesterday: 68 °F (at 5:50 AM)
Average temperature yesterday: 72 °F

High & Low Weather Summary for the Past Weeks

 TemperatureHumidityPressure
High95 °F (Apr 26, 10:50 AM)94% (Apr 23, 6:00 AM)30.07 "Hg (Apr 23, 6:00 AM)
Low59 °F (Apr 18, 6:50 AM)16% (Apr 26, 10:50 AM)29.56 "Hg (Apr 25, 5:00 AM)
Average72 °F67%29.88 "Hg
* Reported Apr 18 6:50 AM — May 3 6:50 AM, Herzliya, Weather by CustomWeather, © 2016

Note: Actual official high and low records may vary slightly from our data, if they occured in-between our weather recording intervals... More about our weather records

Advertising

Herzliya Weather History for the Previous 24 Hours

Scroll right to see more
 ConditionsComfort  
Time TempWeatherWind HumidityBarometerVisibility
6:50 AM
Tue, May 3
68 °FClear.2 mph73%29.86 "Hg10 mi
5:50 AM68 °FClear.2 mph73%29.86 "Hg10 mi
10:50 PM
Mon, May 2
70 °FClear.3 mph83%29.95 "Hg10 mi
9:50 PM70 °FClear.3 mph83%29.92 "Hg10 mi
8:50 PM70 °FClear.5 mph83%29.92 "Hg10 mi
7:50 PM70 °FSunny.6 mph83%29.92 "Hg10 mi
6:50 PM72 °FPassing clouds.9 mph78%29.92 "HgN/A
5:50 PM73 °FSunny.8 mph78%29.89 "Hg10 mi
4:50 PM73 °FSunny.12 mph78%29.89 "Hg10 mi
3:50 PM73 °FSunny.13 mph74%29.86 "Hg10 mi
2:50 PM75 °FSunny.9 mph69%29.89 "Hg10 mi
1:50 PM75 °FSunny.15 mph69%29.89 "Hg10 mi
12:50 PM75 °FPassing clouds.13 mph69%29.89 "HgN/A
11:50 AM75 °FPassing clouds.15 mph69%29.89 "HgN/A
10:50 AM75 °FScattered clouds.14 mph65%29.92 "HgN/A
9:50 AM73 °FPassing clouds.13 mph69%29.89 "HgN/A
8:50 AM72 °FPartly sunny.12 mph73%29.89 "HgN/A
Weather by CustomWeather, © 2016

See weather overviewHow to use our weather pages